Tracking 18984 objects as of 24-Feb-2018
HD Live streaming from Space Station
objects crossing your sky now

FENGYUN 1C DEB

Track FENGYUN 1C DEB now!
10-day predictions


NORAD ID: 30498
Int'l Code: 1999-025AHL
Perigee: 838.1 km
Apogee: 1,005.9 km
Inclination: 99.3 °
Period: 103.3 minutes
Semi major axis: 7293 km
RCS: 0.027 m2 (small)
Launch date: May 10, 1999
Source: People's Republic of China (PRC)
Launch site: Taiyaun Space Center, China (TSC)

Note: This is SATELLITE DEBRIS
aabbcc
Your satellite tracking list
Your tracking list is empty




NASA's NSSDC Master Catalog

Two Line Element Set (TLE):
1 30498U 99025AHL 18054.43263601  .00000669  00000-0  51161-3 0  9990
2 30498  99.2632  36.6353 0115098   7.2667 143.8634 13.93936815561745
Source of the keplerian elements: AFSPC